Flag for U.S.A. Weather past 2 weeks in Mesquite, Texas, U.S.A.

Now
47 °F

Mostly cloudy.


Feels Like: 45 °F
Forecast: 45 / 54 °F
Wind: 5 mph from Southeast

Location: Mesquite Metro Airport

Current Time: Dec 21, 2014 at 3:39:09 AM

Latest Report: Dec 21, 2014 at 3:15 AM


Visibility: 5 mi

Pressure: 30.16 "Hg

Humidity: 92%

Dew point: 45 °F

Location of MesquiteLocation

Historic Weather in Mesquite — Graph

°F

Mesquite temperature yesterday

Maximum temperature yesterday: 47 °F (at 12:15 AM)
Minimum temperature yesterday: 45 °F (at 7:50 AM)
Average temperature yesterday: 46 °F

Past Weeks' High & Low Weather Summary

 TemperatureHumidityPressure
High70 °F (Dec 12, 3:50 PM)100% (Dec 7, 7:50 AM)30.43 "Hg (Dec 7, 7:50 AM)
Low37 °F (Dec 9, 2:15 AM)32% (Dec 15, 2:50 PM)29.80 "Hg (Dec 14, 6:50 PM)
Average51 °F84%30.20 "Hg
* Reported Dec 6 2:15 AM — Dec 21 2:15 AM, Mesquite, Weather by CustomWeather, © 2014

Note: Actual official high and low records may vary slightly from our data, if they occured in-between our weather recording intervals... More about our weather records

Advertising

Mesquite weather history for previous 24 hours

 ConditionsComfort  
Time TempWeatherWind HumidityBarometerVisibility
2:15 AM
Dec 21
47 °FOvercast.3 mph91%30.16 "Hg7 mi
1:55 AM47 °FOvercast.5 mph92%30.16 "Hg7 mi
1:35 AM47 °FOvercast.3 mph93%30.17 "Hg5 mi
1:15 AM47 °FOvercast.No wind93%30.18 "Hg5 mi
12:55 AM47 °FOvercast.No wind93%30.18 "Hg5 mi
12:35 AM47 °FOvercast.No wind93%30.19 "Hg5 mi
12:15 AM47 °FOvercast.No wind93%30.19 "Hg5 mi
11:55 PM
Dec 20
47 °FOvercast.No wind93%30.19 "Hg5 mi
11:15 PM47 °FOvercast.No wind93%30.20 "Hg5 mi
10:55 PM47 °FOvercast.No wind92%30.20 "Hg7 mi
10:35 PM47 °FOvercast.No wind93%30.20 "Hg7 mi
10:15 PM47 °FOvercast.No wind93%30.20 "Hg7 mi
9:55 PM47 °FOvercast.No wind92%30.20 "Hg7 mi
9:35 PM47 °FOvercast.No wind92%30.20 "Hg7 mi
8:55 PM47 °FOvercast.No wind91%30.20 "Hg7 mi
7:50 PM46 °FMostly cloudy.No wind93%30.20 "Hg10 mi
6:55 PM46 °FOvercast.No wind93%30.20 "Hg7 mi
4:47 PM46 °FOvercast.No wind93%30.19 "Hg7 mi
3:47 PM46 °FLow clouds.No wind87%30.19 "Hg7 mi
2:55 PM46 °FLow clouds.No wind87%30.20 "Hg10 mi
1:50 PM46 °FLow clouds.No wind87%30.22 "Hg10 mi
12:50 PM46 °FLow clouds.No wind87%30.23 "Hg10 mi
11:50 AM46 °FLow clouds.3 mph87%30.26 "Hg10 mi
10:50 AM46 °FFog.6 mph87%30.27 "Hg5 mi
9:50 AM45 °FOvercast.3 mph93%30.27 "Hg5 mi
8:50 AM45 °FMostly cloudy.3 mph100%30.25 "Hg4 mi
7:50 AM45 °FLow clouds.3 mph100%30.25 "Hg4 mi
4:35 AM45 °FLow clouds.6 mph97%30.21 "Hg1 mi
4:15 AM45 °FLow clouds.7 mph97%30.22 "Hg2 mi
3:55 AM46 °FLow clouds.6 mph97%30.22 "Hg2 mi
3:35 AM46 °FLow clouds.8 mph97%30.22 "Hg2 mi
3:15 AM46 °FLow clouds.5 mph97%30.22 "Hg2 mi
Weather by CustomWeather, © 2014

See weather overviewHow to use our weather pages